Regional Weather Roundup
Issued by NWS

Home | Current Version | Previous Version | Text Only | Print | Product List | Glossary On
Versions: 1 2 3 4 5 6 7 8 9 10 11 12 13 14 15 16 17 18 19 20 21 22 23 24 25 26 27 28 29 30 31 32 33 34 35 36 37 38 39 40 41 42 43 44 45 46 47 48 49 50
818
ASUS46 KPQR 231010
RWROR

OREGON REGIONAL WEATHER ROUNDUP
NATIONAL WEATHER SERVICE PORTLAND OR
300 AM PDT TUE MAY 23 2017

NOTE: "FAIR" INDICATES FEW OR NO CLOUDS BELOW 12,000 FEET WITH
NO SIGNIFICANT WEATHER AND/OR OBSTRUCTIONS TO VISIBILITY.

ORZ001>013-231100-
NORTHWEST OREGON


CITY           SKY/WX    TMP DP  RH WIND       PRES   REMARKS
ASTORIA        CLEAR     55  51  86 NW8       30.04S
NEWPORT        CLEAR     52  52 100 N8        30.06R FOG
PORTLAND       CLEAR     64  53  67 CALM      29.99R
VANCOUVER WA   CLEAR     63  54  72 CALM      29.98S
SCAPPOOSE      CLEAR     60  54  80 N3        29.98S
HILLSBORO      CLEAR     61  55  81 CALM      29.98S
AURORA         CLEAR     67  53  61 NE3       29.98S
MCMINNVILLE    CLEAR     59  54  83 W3        29.99S
SALEM          CLEAR     63  55  75 SW3       29.97S
CORVALLIS      CLEAR     57  54  88 CALM      29.98S
EUGENE         CLEAR     58  58 100 CALM      29.98F
$$

ORZ021-028-231100-
SOUTHWEST OREGON


CITY           SKY/WX    TMP DP  RH WIND       PRES   REMARKS
NORTH BEND     CLOUDY    55  54  94 N5        30.04S
BROOKINGS      PTCLDY    57  55  93 NW3       29.96F
ROSEBURG       CLEAR     64  56  75 CALM      29.98S
SEXTON SUMMIT  CLEAR     69  41  36 S6        30.12F
MEDFORD        CLEAR     66  53  63 CALM      30.01S
$$

ORZ014>016-041-231100-
COLUMBIA GORGE


CITY           SKY/WX    TMP DP  RH WIND       PRES   REMARKS
TROUTDALE      CLEAR     62  57  83 CALM      29.98S
HOOD RIVER     PTCLDY    59  50  72 CALM      30.03S
THE DALLES     PTCLDY    58  51  78 E3        30.01S
$$

ORZ029>031-041-044-049-050-061>064-502-503-505>511-231100-
EASTERN OREGON


CITY           SKY/WX    TMP DP  RH WIND       PRES   REMARKS
REDMOND        PTCLDY    53  43  68 SE6       30.12F
BEND           PTCLDY    57  45  62 CALM      30.09F
PRINEVILLE     PTCLDY    52  45  76 MISG      30.14S
KLAMATH FALLS  CLEAR     50  45  83 NE3       30.15S
HERMISTON      PTCLDY    50  50 100 SE5       30.00F
PENDLETON      PTCLDY    53  47  79 SE7       30.04S
JOHN DAY       CLEAR     57  45  63 CALM      30.16S
MEACHAM        CLEAR     41  34  76 CALM      30.15S
LA GRANDE      CLEAR     48  41  76 CALM      30.12S
BAKER CITY     CLEAR     44  42  93 N3        30.14F
BURNS          CLEAR     41  37  86 CALM      30.17F
ROME             N/A     50  35  56 SW9       30.16F
ONTARIO        CLEAR     54  47  77 W3        30.10S
$$




USA.gov is the U.S. government's official web portal to all federal, state and local government web resources and services.